TimeEDT,TemperatureF,Dew PointF,Humidity,Sea Level PressureIn,VisibilityMPH,Wind Direction,Wind SpeedMPH,Gust SpeedMPH,PrecipitationIn,Events,Conditions,WindDirDegrees,DateUTC
12:52 AM,64.0,57.9,80,29.88,10.0,Calm,Calm,-,0.00,,Mostly Cloudy,0,2013-09-08 04:52:00
1:52 AM,63.0,57.9,84,29.86,10.0,Calm,Calm,-,N/A,,Overcast,0,2013-09-08 05:52:00
2:52 AM,64.0,59.0,84,29.85,10.0,Calm,Calm,-,N/A,,Scattered Clouds,0,2013-09-08 06:52:00
3:52 AM,62.1,59.0,90,29.82,10.0,Calm,Calm,-,N/A,,Overcast,0,2013-09-08 07:52:00
4:52 AM,62.1,59.0,90,29.81,10.0,Calm,Calm,-,N/A,,Clear,0,2013-09-08 08:52:00
5:52 AM,59.0,57.0,93,29.81,10.0,Calm,Calm,-,N/A,,Partly Cloudy,0,2013-09-08 09:52:00
6:52 AM,61.0,57.0,87,29.82,10.0,Calm,Calm,-,N/A,,Scattered Clouds,0,2013-09-08 10:52:00
7:52 AM,63.0,57.0,81,29.81,10.0,South,4.6,-,N/A,,Scattered Clouds,190,2013-09-08 11:52:00
8:52 AM,68.0,57.0,68,29.81,10.0,WNW,6.9,-,N/A,,Scattered Clouds,290,2013-09-08 12:52:00
9:52 AM,71.1,59.0,66,29.81,10.0,WNW,12.7,18.4,N/A,,Clear,290,2013-09-08 13:52:00
10:52 AM,72.0,59.0,64,29.81,10.0,NW,11.5,18.4,N/A,,Scattered Clouds,310,2013-09-08 14:52:00
11:52 AM,73.9,59.0,59,29.81,10.0,NW,10.4,20.7,N/A,,Mostly Cloudy,320,2013-09-08 15:52:00
12:52 PM,75.0,59.0,57,29.81,10.0,NW,10.4,-,N/A,,Partly Cloudy,310,2013-09-08 16:52:00
1:52 PM,77.0,57.9,52,29.81,10.0,NW,12.7,20.7,N/A,,Mostly Cloudy,320,2013-09-08 17:52:00
2:52 PM,75.0,48.9,40,29.83,10.0,North,18.4,25.3,N/A,,Scattered Clouds,350,2013-09-08 18:52:00
3:52 PM,73.9,43.0,33,29.86,10.0,NNW,12.7,-,N/A,,Clear,340,2013-09-08 19:52:00
4:52 PM,73.0,44.1,35,29.88,10.0,NNW,11.5,-,N/A,,Clear,340,2013-09-08 20:52:00
5:52 PM,70.0,46.0,42,29.91,10.0,North,8.1,-,N/A,,Clear,350,2013-09-08 21:52:00
6:52 PM,66.9,46.0,47,29.94,10.0,NNE,3.5,-,N/A,,Partly Cloudy,20,2013-09-08 22:52:00
7:52 PM,61.0,46.0,58,29.99,10.0,North,5.8,-,N/A,,Clear,360,2013-09-08 23:52:00
8:52 PM,57.0,45.0,64,30.04,10.0,North,5.8,-,N/A,,Clear,350,2013-09-09 00:52:00
9:52 PM,55.0,44.1,67,30.08,10.0,North,4.6,-,N/A,,Clear,10,2013-09-09 01:52:00
10:52 PM,51.1,45.0,80,30.09,10.0,North,6.9,-,N/A,,Clear,360,2013-09-09 02:52:00
11:52 PM,52.0,43.0,71,30.10,10.0,Calm,Calm,-,N/A,,Clear,0,2013-09-09 03:52:00